N3AVN Weather Reports


time (UTC)temp
F
wind
direction
speed
knots
gust
knots
rain 1hr
in
rain 24hr
in
rain mn
in
humidity
%
barometer
mb
20260502152022 53 220 0.0 1.7 0.00 0.14 0.14 82 1010.2
20260502151518 53 220 1.7 1.7 0.00 0.14 0.14 83 1010.2
20260502151016 53 132 1.7 2.6 0.00 0.14 0.14 83 1010.0
20260502150513 53 132 1.7 2.6 0.00 0.14 0.14 84 1010.3
20260502130352 51 106 1.7 3.5 0.00 0.14 0.14 94 1010.3
20260502123335 48 60 0.0 1.7 0.00 0.14 0.14 98 1010.5
20260502122832 48 106 2.6 3.5 0.00 0.14 0.14 98 1010.5
20260502122327 48 72 1.7 3.5 0.00 0.14 0.14 98 1010.6
20260502121827 48 135 2.6 5.2 0.00 0.14 0.14 98 1010.8
20260502121323 48 133 2.6 3.5 0.00 0.14 0.14 98 1010.8
20260502120820 48 90 1.7 2.6 0.00 0.14 0.14 98 1010.8
20260502120317 48 109 1.7 1.7 0.00 0.14 0.14 99 1010.7
20260502115814 48 83 0.9 2.6 0.00 0.14 0.14 99 1010.7
20260502115311 48 127 1.7 1.7 0.00 0.14 0.14 99 1010.6
20260502114808 48 160 0.9 1.7 0.00 0.14 0.14 99 1010.6
20260502114304 48 157 0.0 0.9 0.00 0.14 0.14 99 1010.5
20260502113801 47 147 1.7 2.6 0.00 0.14 0.14 99 1010.6
20260502113259 47 114 0.0 1.7 0.00 0.14 0.14 99 1010.7
20260502112757 47 90 0.0 1.7 0.00 0.14 0.14 99 1010.8
20260502112254 47 110 1.7 2.6 0.00 0.14 0.14 99 1010.7
20260502111751 47 108 1.7 1.7 0.00 0.14 0.14 99 1011.0
20260502111249 47 112 1.7 1.7 0.02 0.14 0.14 99 1011.1
20260502110746 47 97 0.9 1.7 0.14 0.14 0.14 99 1011.2
20260502110244 47 125 1.7 2.6 0.24 0.14 0.14 99 1011.1
20260502105742 47 157 0.0 0.9 0.19 0.12 0.12 99 1011.2
20260502105232 47 147 1.7 1.7 0.17 0.10 0.10 99 1010.9
20260502104731 47 194 0.0 0.9 0.17 0.09 0.09 98 1011.0
20260502104228 47 140 0.9 2.6 0.07 0.07 0.07 98 1011.1
20260502103725 47 120 0.0 1.7 0.00 0.06 0.06 98 1010.9
20260502103222 47 173 0.9 1.7 0.00 0.06 0.06 98 1010.7
20260502102720 47 117 0.0 0.0 0.00 0.06 0.06 98 1010.5
20260502102216 47 121 1.7 1.7 0.00 0.06 0.06 98 1010.2
20260502101714 47 90 0.0 1.7 0.00 0.06 0.06 98 1010.0
20260502101212 47 123 0.9 1.7 0.02 0.06 0.06 98 1010.5
20260502100710 47 114 0.0 0.9 0.07 0.06 0.06 98 1010.6
20260502100208 47 107 1.7 1.7 0.14 0.05 0.05 98 1010.4
20260502091142 47 66 0.0 0.9 0.05 0.02 0.02 97 1010.4
20260502090639 47 14 0.9 1.7 0.02 0.02 0.02 97 1010.8
20260502090136 47 99 0.0 1.7 0.00 0.02 0.02 97 1010.6
20260502071533 49 66 0.0 0.0 0.00 0.00 0.00 87 1009.9
20260502071031 49 77 0.9 1.7 0.00 0.00 0.00 87 1010.0
20260502070529 49 157 0.0 1.7 0.00 0.00 0.00 86 1010.1
20260502070028 50 106 0.0 0.9 0.00 0.00 0.00 85 1010.1
20260502065526 50 111 0.0 0.9 0.00 0.00 0.00 84 1010.3
20260502065023 50 166 0.0 0.9 0.00 0.00 0.00 83 1010.4
20260502064521 50 228 1.7 1.7 0.00 0.00 0.00 81 1010.3
20260502064018 51 81 0.0 0.9 0.00 0.00 0.00 79 1010.1
20260502063515 51 72 1.7 2.6 0.00 0.00 0.00 78 1010.0
20260502063013 51 270 2.6 2.6 0.00 0.00 0.00 78 1010.6
20260502062509 51 180 0.0 2.6 0.00 0.00 0.00 78 1010.1
20260502062009 51 127 0.0 1.7 0.00 0.00 0.00 78 1010.3
20260502061506 51 111 0.9 1.7 0.00 0.00 0.00 78 1010.3
20260502061002 51 90 1.7 2.6 0.00 0.00 0.00 78 1010.1
20260502060457 50 144 2.6 3.5 0.00 0.00 0.00 80 1010.4
20260502055954 50 127 2.6 2.6 0.00 0.00 0.00 81 1010.4
20260502055452 50 151 0.9 0.9 0.00 0.00 0.00 82 1010.4
20260502054947 50 97 0.9 0.9 0.00 0.00 0.00 81 1010.1
20260502054444 50 195 0.0 0.0 0.00 0.00 0.00 82 1010.2
20260502053941 51 173 0.0 1.7 0.00 0.00 0.00 80 1010.2
20260502053438 51 101 1.7 1.7 0.00 0.00 0.00 79 1010.0
20260502052936 51 90 1.7 1.7 0.00 0.00 0.00 80 1010.4
20260502052434 51 135 1.7 1.7 0.00 0.00 0.00 80 1010.2
20260502051932 51 113 1.7 1.7 0.00 0.00 0.00 81 1010.3
20260502051430 51 120 0.0 1.7 0.00 0.00 0.00 78 1010.3
20260502050926 51 74 0.9 1.7 0.00 0.00 0.00 76 1010.5
20260502050422 51 180 0.0 0.0 0.00 0.00 0.00 77 1010.6
20260502045920 51 218 1.7 2.6 0.00 0.00 0.00 74 1010.6
20260502045416 52 0 0.0 2.6 0.00 0.00 0.00 74 1010.3
20260502044914 52 184 2.6 3.5 0.00 0.00 0.00 72 1010.6
20260502044409 53 7 0.0 1.7 0.00 0.00 0.00 71 1010.5
20260502043906 53 10 1.7 2.6 0.00 0.00 0.00 70 1010.6
20260502043404 53 228 1.7 3.5 0.00 0.00 0.00 69 1010.2
20260502042903 52 270 0.9 1.7 0.00 0.00 0.00 69 1010.0
20260502042401 52 100 1.7 1.7 0.00 0.00 0.00 69 1010.4
20260502041858 52 66 0.9 0.9 0.00 0.00 0.00 71 1010.3
20260502041355 52 157 0.0 1.7 0.00 0.00 0.00 70 1010.1
20260502040853 52 114 0.9 1.7 0.00 0.00 0.00 70 1010.2
20260502040349 52 180 0.0 2.6 0.00 0.00 0.00 71 1010.3
20260502035845 52 96 1.7 1.7 0.00 0.00 0.00 73 1010.2
20260502035342 52 160 0.0 0.0 0.00 0.00 0.00 72 1010.2
20260502034839 52 160 0.0 1.7 0.00 0.00 0.00 71 1010.1
20260502034338 52 99 0.0 0.0 0.00 0.00 0.00 71 1010.1
20260502033836 53 180 0.0 0.0 0.00 0.00 0.00 69 1009.9
20260502033333 53 90 0.0 1.7 0.00 0.00 0.00 67 1010.2
20260502032830 53 96 1.7 1.7 0.00 0.00 0.00 67 1010.1
20260502032326 53 124 1.7 2.6 0.00 0.00 0.00 67 1010.4
20260502031824 53 100 1.7 1.7 0.00 0.00 0.00 65 1010.5
20260502031322 53 175 0.0 1.7 0.00 0.00 0.00 65 1010.4
20260502030820 53 166 1.7 3.5 0.00 0.00 0.00 64 1010.4
20260502030318 53 353 0.0 1.7 0.00 0.00 0.00 65 1010.5
20260502025815 53 60 0.0 2.6 0.00 0.00 0.00 65 1010.3
20260502025313 53 139 1.7 1.7 0.00 0.00 0.00 67 1010.2
20260502024810 52 99 0.0 1.7 0.00 0.00 0.00 65 1010.3
20260502024308 53 203 0.0 0.9 0.00 0.00 0.00 66 1010.4
20260502023806 53 180 0.0 1.7 0.00 0.00 0.00 63 1010.1
20260502023303 53 180 0.0 1.7 0.00 0.00 0.00 63 1010.1
20260502022800 54 145 0.0 0.9 0.00 0.00 0.00 62 1010.1
20260502022257 54 157 0.0 0.9 0.00 0.00 0.00 61 1010.5
20260502021754 55 188 0.0 0.9 0.00 0.00 0.00 58 1010.3
20260502021251 55 254 0.9 2.6 0.00 0.00 0.00 57 1010.3
20260502020748 56 270 0.0 1.7 0.00 0.00 0.00 55 1010.1
20260502020246 56 236 0.0 1.7 0.00 0.00 0.00 56 1010.2
20260502015743 56 86 1.7 3.5 0.00 0.00 0.00 55 1010.2
20260502015239 56 111 0.9 3.5 0.00 0.00 0.00 55 1010.2
20260502014737 56 315 0.0 1.7 0.00 0.00 0.00 56 1010.2
20260502014233 56 228 1.7 2.6 0.00 0.00 0.00 54 1010.1
20260502013730 56 180 0.0 1.7 0.00 0.00 0.00 55 1010.2
20260502013225 56 101 1.7 1.7 0.00 0.00 0.00 55 1010.1
20260502012722 56 215 0.9 3.5 0.00 0.00 0.00 57 1009.9
20260502012220 55 90 2.6 2.6 0.00 0.00 0.00 56 1009.9
20260502011717 55 195 0.0 2.6 0.00 0.00 0.00 64 1009.9
20260502011213 55 114 1.7 1.7 0.00 0.00 0.00 64 1009.8
20260502010711 54 117 0.9 0.9 0.00 0.00 0.00 67 1009.7
20260502010207 54 172 0.0 0.0 0.00 0.00 0.00 67 1009.7
20260502005704 54 172 0.0 0.0 0.00 0.00 0.00 63 1009.8
20260502005202 54 165 0.0 0.9 0.00 0.00 0.00 62 1009.6
20260502004658 54 337 1.7 1.7 0.00 0.00 0.00 62 1009.5
20260502004154 54 180 0.0 0.0 0.00 0.00 0.00 60 1009.6
20260502003652 55 209 0.0 0.0 0.00 0.00 0.00 60 1009.3
20260502003149 55 203 0.9 0.9 0.00 0.00 0.00 59 1009.1
20260502002645 55 209 0.0 0.0 0.00 0.00 0.00 57 1009.2
20260502002143 55 209 0.0 0.0 0.00 0.00 0.00 57 1009.2
20260502001640 55 209 0.0 0.0 0.00 0.00 0.00 59 1009.1
20260502001138 55 209 0.0 0.0 0.00 0.00 0.00 56 1009.0
20260502000636 55 209 0.0 0.0 0.00 0.00 0.00 58 1009.0
20260502000133 56 209 0.0 0.0 0.00 0.00 0.00 57 1008.8
20260501235629 56 209 0.0 0.0 0.00 0.00 0.00 57 1008.7
20260501235125 56 209 0.0 0.0 0.00 0.00 0.00 54 1008.8
20260501234620 56 209 0.0 0.0 0.00 0.00 0.00 54 1008.6
20260501234118 56 209 0.0 0.0 0.00 0.00 0.00 54 1008.6
20260501233616 57 209 0.0 0.0 0.00 0.00 0.00 57 1008.5
20260501233113 57 209 0.0 0.0 0.00 0.00 0.00 55 1008.5
20260501232609 57 209 0.0 0.0 0.00 0.00 0.00 51 1008.5
20260501232107 58 209 0.0 0.0 0.00 0.00 0.00 53 1008.6
20260501231604 58 209 0.0 0.0 0.00 0.00 0.00 52 1008.2
20260501231102 59 192 0.0 0.9 0.00 0.00 0.00 50 1008.5
20260501230600 59 249 0.0 0.9 0.00 0.00 0.00 49 1008.3
20260501230058 60 114 0.9 1.7 0.00 0.00 0.00 46 1008.1
20260501225555 60 151 0.0 0.9 0.00 0.00 0.00 44 1008.2
20260501225051 60 187 0.0 0.0 0.00 0.00 0.00 43 1008.1
20260501224549 61 187 0.0 0.0 0.00 0.00 0.00 38 1008.1
20260501224046 61 187 0.0 1.7 0.00 0.00 0.00 36 1008.1
20260501223542 61 11 0.0 2.6 0.00 0.00 0.00 38 1008.1
20260501223038 62 209 0.0 2.6 0.00 0.00 0.00 37 1008.0
20260501222535 63 201 1.7 3.5 0.00 0.00 0.00 35 1008.1
20260501222032 63 216 1.7 4.3 0.00 0.00 0.00 36 1008.0
20260501221528 62 135 0.0 2.6 0.00 0.00 0.00 36 1008.1
20260501221026 63 139 1.7 2.6 0.00 0.00 0.00 36 1007.7
20260501220524 62 159 2.6 4.3 0.00 0.00 0.00 35 1008.1
20260501220020 63 157 0.0 3.5 0.00 0.00 0.00 36 1008.0
20260501215517 63 228 1.7 3.5 0.00 0.00 0.00 36 1008.2
20260501215012 63 306 0.0 3.5 0.00 0.00 0.00 35 1008.0
20260501214508 64 249 0.0 1.7 0.00 0.00 0.00 35 1008.2
20260501214004 64 339 1.7 3.5 0.00 0.00 0.00 35 1008.1
20260501213501 64 252 2.6 3.5 0.00 0.00 0.00 35 1008.1
20260501213001 64 240 2.6 7.0 0.00 0.00 0.00 33 1008.1
20260501212458 64 350 2.6 3.5 0.00 0.00 0.00 34 1008.0
20260501211955 64 9 0.0 4.3 0.00 0.00 0.00 36 1008.3
20260501211453 63 7 0.0 2.6 0.00 0.00 0.00 40 1008.3
20260501210950 62 337 0.9 3.5 0.00 0.00 0.00 39 1008.0
20260501210446 64 304 4.3 4.3 0.00 0.00 0.00 34 1008.2
20260501205943 68 305 4.3 4.3 0.00 0.00 0.00 32 1007.9
20260501205440 66 292 1.7 3.5 0.00 0.00 0.00 33 1007.8
20260501204937 65 12 0.9 3.5 0.00 0.00 0.00 32 1008.1
20260501204433 64 275 1.7 3.5 0.00 0.00 0.00 35 1008.0
20260501203929 64 0 0.0 2.6 0.00 0.00 0.00 36 1008.1
20260501203426 63 315 1.7 3.5 0.00 0.00 0.00 35 1008.0
20260501202924 67 249 2.6 3.5 0.00 0.00 0.00 31 1008.4
20260501202421 66 203 0.9 3.5 0.00 0.00 0.00 35 1008.2
20260501201917 65 18 0.0 5.2 0.00 0.00 0.00 35 1007.9
20260501201415 63 219 3.5 4.3 0.00 0.00 0.00 35 1008.1
20260501200911 63 80 4.3 5.2 0.00 0.00 0.00 37 1008.2
20260501200408 63 180 0.0 2.6 0.00 0.00 0.00 35 1008.1
20260501195906 63 106 0.0 3.5 0.00 0.00 0.00 36 1008.1
20260501195401 65 340 4.3 5.2 0.00 0.00 0.00 33 1008.2
20260501194858 64 203 3.5 7.0 0.00 0.00 0.00 33 1008.2
20260501194354 64 337 0.9 8.7 0.00 0.00 0.00 34 1008.2
20260501193850 65 320 2.6 6.1 0.00 0.00 0.00 33 1008.0
20260501193349 63 0 3.5 8.7 0.00 0.00 0.00 35 1008.3
20260501192846 64 358 3.5 6.1 0.00 0.00 0.00 36 1008.2
20260501192343 63 315 1.7 7.8 0.00 0.00 0.00 35 1008.1
20260501191840 64 345 4.3 5.2 0.00 0.00 0.00 35 1008.4
20260501191337 64 303 3.5 8.7 0.00 0.00 0.00 34 1008.5
20260501190834 64 355 1.7 11.3 0.00 0.00 0.00 36 1008.6
20260501190330 63 223 7.0 8.7 0.00 0.00 0.00 33 1008.5
20260501185825 63 311 2.6 7.0 0.00 0.00 0.00 38 1008.6
20260501185321 64 263 4.3 13.9 0.00 0.00 0.00 34 1008.5
20260501184817 64 172 0.0 8.7 0.00 0.00 0.00 35 1008.9
20260501184313 65 309 4.3 5.2 0.00 0.00 0.00 37 1008.8
20260501183809 62 334 2.6 5.2 0.00 0.00 0.00 36 1008.9
20260501183307 62 221 0.0 6.1 0.00 0.00 0.00 36 1008.9
20260501182802 64 199 4.3 7.0 0.00 0.00 0.00 36 1009.0
20260501182259 63 147 1.7 4.3 0.00 0.00 0.00 37 1009.0
20260501181756 63 313 0.0 4.3 0.00 0.00 0.00 34 1009.1
20260501181254 63 26 1.7 8.7 0.00 0.00 0.00 41 1008.9
20260501180751 63 244 4.3 8.7 0.00 0.00 0.00 37 1009.2
20260501180247 61 344 1.7 7.8 0.00 0.00 0.00 38 1009.2
20260501175743 61 324 1.7 13.0 0.00 0.00 0.00 37 1009.1
20260501175241 62 328 1.7 5.2 0.00 0.00 0.00 37 1009.2
20260501174737 62 0 0.0 7.0 0.00 0.00 0.00 39 1009.2
20260501174235 62 315 0.0 6.1 0.00 0.00 0.00 34 1009.3
20260501173733 63 234 2.6 5.2 0.00 0.00 0.00 37 1009.2
20260501173229 62 180 0.0 10.4 0.00 0.00 0.00 35 1009.2
20260501172725 61 255 5.2 14.8 0.00 0.00 0.00 36 1009.2
20260501172220 63 341 3.5 5.2 0.00 0.00 0.00 35 1008.9
20260501171717 62 242 7.0 11.3 0.00 0.00 0.00 36 1009.0
20260501171214 62 210 5.2 11.3 0.00 0.00 0.00 35 1009.1
20260501170711 61 323 5.2 13.9 0.00 0.00 0.00 36 1009.4
20260501170207 62 221 8.7 9.6 0.00 0.00 0.00 33 1009.3
20260501165705 62 29 0.9 7.0 0.00 0.00 0.00 40 1009.2
20260501165202 60 315 1.7 3.5 0.00 0.00 0.00 37 1009.1
20260501164700 63 216 2.6 3.5 0.00 0.00 0.00 40 1009.1
20260501164157 62 322 4.3 7.8 0.00 0.00 0.00 38 1009.2
20260501163653 62 36 2.6 7.0 0.00 0.00 0.00 37 1009.3
20260501163150 61 0 1.7 4.3 0.00 0.00 0.00 38 1009.3
20260501162646 60 327 1.7 6.1 0.00 0.00 0.00 37 1009.3
20260501162143 60 294 1.7 9.6 0.00 0.00 0.00 39 1009.5
20260501161640 60 166 4.3 7.8 0.00 0.00 0.00 40 1009.3
20260501161137 61 3 1.7 2.6 0.00 0.00 0.00 40 1009.4
20260501160633 62 74 3.5 7.0 0.00 0.00 0.00 40 1009.4
20260501160131 61 279 1.7 6.1 0.00 0.00 0.00 40 1009.7
20260501155627 60 45 1.7 10.4 0.00 0.00 0.00 43 1009.5
20260501155125 62 324 2.6 4.3 0.00 0.00 0.00 40 1009.6
20260501154622 60 234 0.9 6.1 0.00 0.00 0.00 41 1009.8
20260501154119 59 266 1.7 6.1 0.00 0.00 0.00 41 1009.8
20260501153616 59 252 7.8 11.3 0.00 0.00 0.00 45 1009.7
20260501153113 60 315 2.6 4.3 0.00 0.00 0.00 41 1009.9